[[{"header":{"parameterUnit":"m.s-1","parameterCategory":1,"la1":30.2991,"la2":30.254,"lo1":-89.0895,"lo2":-89.0444,"dy":0.0017,"dx":0.0017,"nx":28,"ny":28,"refTime":"2024-03-05T03:00:00:Z","depth":0,"parameterNumber":2,"parameterNumberName":"U-component_of_WINDS"},"data":[0,0,0,0,0,0,0,0,0,0,0,0,0,0,0,0,0,0,0,0,0,0,0,0,0,0,0,0,0,0,0,0,0,0,0,0,0,0,0,0,0,0,0,0,0,0,0,0,0,0,0,0,0,0,0,0,0,0,-0.361,-0.361,0,-0.3596,-0.3596,-0.3596,-0.3582,-0.3582,-0.3582,-0.3582,-0.3567,-0.3567,-0.3567,0,0,0,0,0,0,0,0,0,0,0,0,0,-0.3628,-0.3627,-0.361,-0.361,-0.361,-0.3596,-0.3596,-0.3596,-0.3582,-0.3582,-0.3582,-0.3582,-0.3567,-0.3567,-0.3567,0,0,0,0,0,0,0,0,0,0,0,0,0,-0.3617,-0.3627,-0.361,-0.3602,-0.3601,-0.3596,-0.3596,-0.3596,-0.3582,-0.3582,-0.3582,-0.3582,-0.3567,-0.3567,-0.3567,-0.357,0,0,-0.3566,-0.3566,0,0,0,0,0,0,0,0,-0.3618,-0.3617,-0.3603,-0.3602,-0.3601,-0.3591,-0.3597,-0.3587,-0.3582,-0.3589,-0.3582,-0.3582,-0.3575,-0.3574,-0.3572,-0.3569,-0.3568,-0.3566,-0.3565,-0.3565,-0.3565,0,0,0,0,0,0,0,-0.3619,-0.3617,-0.3605,-0.3603,-0.3602,-0.3599,-0.3597,-0.3595,-0.3584,-0.3589,-0.3588,-0.3586,-0.3575,-0.3572,-0.3572,-0.3568,-0.3566,-0.3565,-0.3565,-0.3565,-0.3569,-0.3569,0,0,0,0,0,0,-0.3621,-0.3618,-0.3605,-0.3604,-0.3609,-0.3599,-0.3597,-0.3594,-0.3584,-0.3582,-0.3586,-0.3586,-0.3573,-0.3572,-0.3571,-0.3575,-0.3565,-0.3565,-0.3565,-0.3568,-0.3569,-0.3569,0,0,0,0,0,0,-0.3621,-0.362,-0.3606,-0.3611,-0.3609,-0.3599,-0.3596,-0.3594,-0.3592,-0.3582,-0.358,-0.3586,-0.3573,-0.3572,-0.3571,-0.3574,-0.3565,-0.3564,-0.3568,-0.3569,-0.3569,-0.3582,0,0,0,0,0,0,-0.3622,-0.362,-0.362,-0.3611,-0.3609,-0.3605,-0.3596,-0.3594,-0.3591,-0.359,-0.3581,-0.358,-0.3573,-0.3571,-0.357,-0.3574,-0.3564,-0.3568,-0.3568,-0.3569,-0.3581,-0.3583,-0.3584,0,0,0,0,0,-0.3622,-0.3624,-0.362,-0.3619,-0.3609,-0.3605,-0.3604,-0.3596,-0.3592,-0.3592,-0.3587,-0.358,-0.3574,-0.3571,-0.357,-0.3573,-0.3567,-0.3568,-0.3569,-0.358,-0.3582,-0.3584,0,0,0,0,0,0,-0.3633,-0.3623,-0.3618,-0.3617,-0.3612,-0.3603,-0.3603,-0.3598,-0.3594,-0.3593,-0.3583,-0.3581,-0.3582,-0.3577,-0.3574,-0.3577,-0.357,-0.357,-0.3579,-0.3581,-0.3583,-0.3583,-0.3564,0,0,0,0,0,-0.3636,-0.3633,-0.3624,-0.3624,-0.3622,-0.3613,-0.3611,-0.3606,-0.36,-0.3598,-0.3592,-0.3587,-0.3584,-0.3582,-0.3579,-0.3581,-0.3579,-0.3583,-0.3584,-0.3585,-0.3586,-0.3588,-0.359,-0.3571,-0.3571,-0.3571,0,0,-0.364,-0.3634,-0.3633,-0.3626,-0.3621,-0.362,-0.3611,-0.3609,-0.3608,-0.3597,-0.3596,-0.3592,-0.3586,-0.3587,-0.3587,-0.3583,-0.3591,-0.3586,-0.3587,-0.3587,-0.3589,-0.3591,-0.3592,-0.3572,-0.3572,-0.3572,0,0,-0.3648,-0.3643,-0.3643,-0.3639,-0.3633,-0.3627,-0.3627,-0.3619,-0.3616,-0.3615,-0.3608,-0.3607,-0.3602,-0.3598,-0.3596,-0.3605,-0.3599,-0.3604,-0.3612,-0.3614,-0.3616,-0.3617,-0.3621,-0.3622,-0.3605,-0.3605,-0.3605,0,-0.3654,-0.3651,-0.3643,-0.3642,-0.364,-0.3631,-0.3632,-0.3629,-0.3622,-0.362,-0.3617,-0.3612,-0.3607,-0.3608,-0.361,-0.3608,-0.3609,-0.3605,-0.3616,-0.3617,-0.3618,-0.3622,-0.3624,-0.3606,-0.3605,-0.3605,-0.3605,0,-0.366,-0.3658,-0.3659,-0.3653,-0.3651,-0.3651,-0.3644,-0.3643,-0.3638,-0.3634,-0.3634,-0.3628,-0.3624,-0.3624,-0.3619,-0.3625,-0.3623,-0.3618,-0.3611,-0.3621,-0.3624,-0.3626,-0.3607,-0.3606,-0.3606,-0.3606,0,0,-0.3672,-0.3664,-0.3664,-0.3662,-0.3656,-0.3655,-0.3655,-0.3652,-0.3651,-0.3648,-0.3648,-0.3645,-0.3641,-0.3639,-0.3634,-0.3636,-0.3645,-0.3631,-0.363,-0.3634,-0.3652,-0.3656,-0.3657,-0.3641,-0.3642,-0.3642,-0.3653,0,-0.3679,-0.3678,-0.3673,-0.3674,-0.3673,-0.3666,-0.3666,-0.3663,-0.3659,-0.3658,-0.3654,-0.3653,-0.3647,-0.3646,-0.3648,-0.3643,-0.3648,-0.3642,-0.3642,-0.3642,-0.3644,-0.3659,-0.3663,-0.3673,-0.3654,-0.3654,-0.3654,0,-0.3686,-0.3684,-0.3685,-0.3681,-0.368,-0.368,-0.3678,-0.3677,-0.3674,-0.3671,-0.367,-0.3664,-0.3665,-0.3659,-0.3661,-0.3658,-0.3657,-0.3656,-0.3656,-0.3655,-0.3649,-0.3659,-0.3676,-0.3678,-0.3656,-0.3656,-0.3656,0,-0.3696,-0.3693,-0.3694,-0.3692,-0.3687,-0.3688,-0.3685,-0.3682,-0.3681,-0.3679,-0.3679,-0.3677,-0.3676,-0.3676,-0.3671,-0.3667,-0.3674,-0.3667,-0.3672,-0.3672,-0.3673,-0.3673,-0.3691,-0.3673,-0.3673,-0.3673,-0.3673,0,-0.3704,-0.3705,-0.3698,-0.3699,-0.3701,-0.3695,-0.3697,-0.3694,-0.3692,-0.3692,-0.3686,-0.3687,-0.3681,-0.3681,-0.3677,-0.368,-0.368,-0.3678,-0.3677,-0.3678,-0.3679,-0.3678,-0.3677,-0.3674,-0.3674,-0.3673,-0.3673,0,-0.3714,-0.371,-0.371,-0.3706,-0.3705,-0.3707,-0.3703,-0.3704,-0.3701,-0.3702,-0.3702,-0.3697,-0.3697,-0.3693,-0.3692,-0.3689,-0.3694,-0.3692,-0.3695,-0.3694,-0.37,-0.37,-0.3717,-0.372,-0.3701,-0.3701,-0.3701,0,-0.3719,-0.372,-0.3717,-0.3717,-0.3715,-0.3715,-0.3715,-0.371,-0.371,-0.3708,-0.3709,-0.3709,-0.3709,-0.371,-0.3707,-0.3707,-0.3704,-0.3711,-0.3704,-0.3707,-0.3705,-0.3705,-0.3706,-0.3712,-0.3712,-0.3712,-0.3712,0,-0.3729,-0.3728,-0.3727,-0.3727,-0.3727,-0.3726,-0.3724,-0.3725,-0.372,-0.372,-0.3721,-0.3721,-0.3721,-0.3722,-0.3722,-0.372,-0.3716,-0.3715,-0.3716,-0.3717,-0.372,-0.3719,-0.3699,-0.3714,-0.3714,-0.3714,-0.3714,-0.3714,-0.3737,-0.3739,-0.3737,-0.3737,-0.3736,-0.3736,-0.3737,-0.3735,-0.3735,-0.3735,-0.3732,-0.3734,-0.3733,-0.3732,-0.3731,-0.3733,-0.373,-0.3732,-0.3732,-0.3733,-0.3734,-0.372,-0.3733,-0.3733,-0.3733,-0.3733,-0.3733,0,-0.3748,-0.3747,-0.3747,-0.3746,-0.3747,-0.3744,-0.3743,-0.3744,-0.3745,-0.3745,-0.3745,-0.3747,-0.3748,-0.3746,-0.3747,-0.3749,-0.3747,-0.3749,-0.3749,-0.3749,-0.3736,-0.3735,-0.3751,-0.3751,-0.3751,-0.3751,-0.3751,-0.3751,-0.3753,-0.3755,-0.3754,-0.3757,-0.3756,-0.3757,-0.3757,-0.3758,-0.3757,-0.376,-0.3761,-0.376,-0.3759,-0.376,-0.3762,-0.3761,-0.3762,-0.3765,-0.3764,-0.3752,-0.375,-0.3748,-0.3747,-0.3765,-0.3765,-0.3776,-0.3777,-0.3777]},{"header":{"parameterUnit":"m.s-1","parameterCategory":1,"la1":30.2991,"la2":30.254,"lo1":-89.0895,"lo2":-89.0444,"dy":0.0017,"dx":0.0017,"nx":28,"ny":28,"refTime":"2024-03-05T03:00:00:Z","depth":0,"parameterNumber":3,"parameterNumberName":"V-component_of_WINDS"},"data":[0,0,0,0,0,0,0,0,0,0,0,0,0,0,0,0,0,0,0,0,0,0,0,0,0,0,0,0,0,0,0,0,0,0,0,0,0,0,0,0,0,0,0,0,0,0,0,0,0,0,0,0,0,0,0,0,0,0,0.7015,0.7015,0,0.7007,0.7006,0.7006,0.7026,0.7026,0.7027,0.7028,0.7018,0.7017,0.7017,0,0,0,0,0,0,0,0,0,0,0,0,0,0.7048,0.7048,0.7015,0.7015,0.7015,0.7007,0.7006,0.7006,0.7026,0.7026,0.7027,0.7028,0.7019,0.7018,0.7017,0,0,0,0,0,0,0,0,0,0,0,0,0,0.7036,0.7047,0.7015,0.7024,0.7024,0.7007,0.7006,0.7006,0.7026,0.7026,0.7027,0.7028,0.7019,0.7018,0.7016,0.699,0,0,0.7013,0.7012,0,0,0,0,0,0,0,0,0.7037,0.7035,0.7022,0.7023,0.7024,0.7018,0.7015,0.7001,0.7025,0.7025,0.7028,0.7029,0.7017,0.7016,0.7013,0.699,0.6989,0.7013,0.7012,0.7011,0.7011,0,0,0,0,0,0,0,0.7038,0.7035,0.7012,0.7022,0.7023,0.7028,0.7027,0.7012,0.7016,0.7025,0.7026,0.7025,0.7018,0.7014,0.7013,0.6989,0.7013,0.7011,0.7011,0.701,0.6945,0.6944,0,0,0,0,0,0,0.7037,0.7036,0.7012,0.7011,0.7033,0.7026,0.7026,0.7019,0.7016,0.7017,0.7024,0.7026,0.7016,0.7014,0.7012,0.6982,0.7011,0.701,0.7009,0.6946,0.6945,0.6943,0,0,0,0,0,0,0.7038,0.7035,0.7012,0.7024,0.7022,0.7025,0.7017,0.7018,0.7014,0.7016,0.7017,0.702,0.7016,0.7014,0.6996,0.6982,0.701,0.7008,0.6947,0.6945,0.6944,0.692,0,0,0,0,0,0,0.7039,0.7035,0.7025,0.7024,0.7021,0.6996,0.7016,0.7018,0.7012,0.7014,0.7011,0.7012,0.7017,0.6997,0.6994,0.698,0.7007,0.6948,0.6946,0.6944,0.6922,0.6918,0.6914,0,0,0,0,0,0.704,0.7018,0.7025,0.7022,0.7008,0.6995,0.6993,0.6999,0.7011,0.7001,0.7002,0.7012,0.6984,0.6995,0.6992,0.6978,0.6949,0.6947,0.6945,0.6924,0.6919,0.6914,0,0,0,0,0,0,0.7018,0.7018,0.7025,0.7002,0.6998,0.6998,0.6986,0.6994,0.6986,0.6989,0.6997,0.6996,0.6976,0.6975,0.6988,0.6952,0.6968,0.6965,0.6954,0.6949,0.6945,0.6946,0.7006,0,0,0,0,0,0.701,0.6999,0.7,0.698,0.6978,0.6982,0.6976,0.6982,0.6978,0.6976,0.6976,0.6972,0.6962,0.6955,0.6946,0.6922,0.6922,0.6911,0.6907,0.6904,0.6901,0.6888,0.6884,0.6936,0.6936,0.6936,0,0,0.6994,0.6993,0.6986,0.6976,0.6973,0.6962,0.698,0.6967,0.6959,0.6974,0.6957,0.6957,0.6952,0.6931,0.6922,0.693,0.6886,0.6901,0.6898,0.6897,0.6886,0.6881,0.6876,0.6935,0.6935,0.6935,0,0,0.696,0.6958,0.6941,0.6938,0.6935,0.6938,0.6934,0.6932,0.6933,0.6916,0.6927,0.6917,0.69,0.6897,0.6893,0.6858,0.6867,0.6855,0.6835,0.6823,0.6819,0.6815,0.6803,0.6798,0.6853,0.6852,0.6852,0,0.694,0.6923,0.6931,0.6918,0.6913,0.6927,0.691,0.6907,0.69,0.6897,0.6906,0.6886,0.6884,0.6862,0.6854,0.685,0.6846,0.6855,0.6819,0.6815,0.6812,0.68,0.6796,0.6851,0.6851,0.6851,0.6851,0,0.69,0.6888,0.6875,0.6869,0.6863,0.6848,0.6854,0.6847,0.6853,0.6855,0.6838,0.6836,0.6827,0.6823,0.6828,0.6802,0.6807,0.6817,0.6833,0.6805,0.6794,0.679,0.6849,0.6849,0.685,0.685,0,0,0.685,0.6849,0.6844,0.6842,0.684,0.6831,0.6816,0.6808,0.6802,0.6797,0.6786,0.6772,0.6781,0.6777,0.6782,0.6772,0.6745,0.6783,0.6783,0.6776,0.6716,0.6708,0.6703,0.6751,0.675,0.6749,0.6716,0,0.6816,0.6792,0.6799,0.6775,0.6764,0.6777,0.6765,0.6762,0.6764,0.6756,0.6758,0.6747,0.6761,0.6758,0.6748,0.675,0.6733,0.6752,0.674,0.6739,0.6741,0.6698,0.6689,0.6658,0.6712,0.6712,0.6711,0,0.6773,0.6767,0.6742,0.6742,0.6738,0.6726,0.672,0.6712,0.6709,0.6711,0.6706,0.6714,0.6701,0.6717,0.6698,0.6712,0.6707,0.6707,0.6706,0.6705,0.6723,0.6695,0.6649,0.6644,0.6705,0.6705,0.6706,0,0.674,0.6725,0.6709,0.6706,0.6706,0.6697,0.6697,0.6695,0.669,0.6684,0.6681,0.6674,0.667,0.6664,0.667,0.6681,0.665,0.6667,0.6652,0.6652,0.6644,0.6645,0.6596,0.6641,0.6641,0.6642,0.6642,0,0.6701,0.6685,0.6694,0.6683,0.6666,0.6674,0.6657,0.6658,0.6656,0.6647,0.6658,0.6648,0.6656,0.6648,0.6652,0.6636,0.6634,0.6636,0.6637,0.6635,0.6634,0.6632,0.6634,0.664,0.6641,0.6641,0.6641,0,0.666,0.6666,0.6648,0.6649,0.6649,0.6637,0.6638,0.6628,0.6631,0.6619,0.6616,0.6621,0.6611,0.6617,0.6607,0.661,0.6589,0.6593,0.659,0.6591,0.6575,0.6577,0.6523,0.6517,0.6566,0.6566,0.6565,0,0.6635,0.6623,0.6623,0.6618,0.6617,0.6607,0.6603,0.6611,0.6605,0.6601,0.6592,0.6584,0.6578,0.6562,0.6564,0.6557,0.6561,0.6543,0.656,0.6558,0.6561,0.6562,0.6561,0.6539,0.6539,0.6538,0.6538,0,0.659,0.6593,0.6586,0.658,0.6574,0.6569,0.6566,0.656,0.6568,0.6562,0.6552,0.6547,0.6538,0.6529,0.6523,0.6522,0.6531,0.6532,0.6529,0.6526,0.6525,0.6525,0.6581,0.6534,0.6534,0.6534,0.6535,0.6535,0.6556,0.6547,0.6546,0.6537,0.6536,0.6532,0.6524,0.6526,0.6518,0.6511,0.6516,0.6505,0.6504,0.6496,0.6495,0.6486,0.6494,0.6488,0.6486,0.6485,0.6483,0.6526,0.6485,0.6485,0.6485,0.6485,0.6486,0,0.6512,0.6512,0.6505,0.65,0.6493,0.6503,0.6499,0.6493,0.6483,0.6481,0.6475,0.6464,0.6457,0.6459,0.6452,0.6444,0.6448,0.6442,0.6443,0.6443,0.6476,0.6481,0.6439,0.6439,0.6439,0.6439,0.6439,0.6439,0.6488,0.6473,0.6476,0.646,0.646,0.645,0.6447,0.6444,0.6443,0.643,0.6424,0.6426,0.6425,0.6418,0.6412,0.6413,0.6409,0.6402,0.6404,0.6436,0.644,0.6445,0.6449,0.6401,0.6401,0.6371,0.6371,0.6371]}]]